Hourly Data Report for September 03, 2017

All times are specified in Local Standard Time (LST). Add 1 hour to adjust for Daylight Saving Time where and when it is observed.

KITCHENER/WATERLOO
ONTARIO

43°27'39.000" N
80°22'43.000" W
321.60 m
6144239
71368
YKF

Download Data

Hourly Data (September 2017)
Hourly Data Report for September 3, 2017
Temp Definition
°C
Dew Point Temp Definition
°C
Rel Hum Definition
%
Wind Dir Definition
10's deg

Wind Spd Definition
km/h
Visibility Definition
km
Stn Press Definition
kPa
Hmdx Definition


Wind Chill Definition


Weather Definition


TIME
00:00 Legend Double Dagger 13.5 13.0 97 14 13 4.8 97.50     Fog
01:00 Legend Double Dagger 13.7 13.2 97 15 13 14.5 97.41     LegendNANA
02:00 Legend Double Dagger 13.9 13.4 97 17 11 8.1 97.32     Rain,Fog
03:00 Legend Double Dagger 13.9 13.5 97 18 5 8.1 97.26     Rain,Fog
04:00 Legend Double Dagger 14.0 13.5 97 30 5 12.9 97.25     Rain
05:00 Legend Double Dagger 14.0 13.2 95 31 9 16.1 97.24     LegendNANA
06:00 Legend Double Dagger 13.6 12.8 95 29 13 16.1 97.34     LegendNANA
07:00 Legend Double Dagger 13.7 13.1 96 28 8 16.1 97.36     LegendNANA
08:00 Legend Double Dagger 14.3 13.6 96 31 13 8.1 97.31     Fog
09:00 Legend Double Dagger 15.6 14.4 92 28 13 8.1 97.31     Fog
10:00 Legend Double Dagger 16.6 14.2 86 28 18 16.1 97.33     LegendNANA
11:00 Legend Double Dagger 17.4 13.6 78 28 24 16.1 97.32     LegendNANA
12:00 Legend Double Dagger 18.5 12.6 68 27 24 16.1 97.32     LegendNANA
13:00 Legend Double Dagger 20.1 12.4 61 29 24 16.1 97.33     LegendNANA
14:00 Legend Double Dagger 19.3 11.5 60 27 32 16.1 97.33     LegendNANA
15:00 Legend Double Dagger 20.2 11.2 56 27 28 16.1 97.36     LegendNANA
16:00 Legend Double Dagger 18.2 11.8 66 28 24 12.9 97.37     LegendNANA
17:00 Legend Double Dagger 19.3 13.4 69 28 21 16.1 97.41     LegendNANA
18:00 Legend Double Dagger 18.0 13.2 73 27 18 16.1 97.45     LegendNANA
19:00 Legend Double Dagger 16.8 13.2 79 25 15 16.1 97.48     LegendNANA
20:00 Legend Double Dagger 15.0 12.8 86 22 5 16.1 97.49     LegendNANA
21:00 Legend Double Dagger 15.0 12.8 87 23 9 16.1 97.48     LegendNANA
22:00 Legend Double Dagger 15.3 12.9 85 23 15 16.1 97.45     LegendNANA
23:00 Legend Double Dagger 15.4 12.9 85 24 17 16.1 97.41     LegendNANA

Notes on Data Quality.

Legend

  • E = Estimated
  • M = Missing
  • NA = Not Available
  • ‡ = Partner data that is not subject to review by the National Climate Archives
Date modified: